Wind_Speed
12 3 7 4 4 10 10 9 9 10 14 14 12 11 15 19 18 22 22 23 23 23 26 33 34 25 23 22 21 25 25 26 27 28 29 31 32 33 33 35 36 37 39 40
7 7 4 6 10 8 12 8 14 13 14 12 9 11 13 14 19 22 19 22 21 24 30 30 20 20 22 24 25 28 28 29 29 30 33 34 35 37 38 38 38 38 40 43
13 13 6 7 9 9 11 8 11 15 12 8 9 10 15 16 19 20 17 19 24 26 32 18 17 21 23 26 29 30 31 32 33 35 37 40 41 42 41 42 42 44 42 40
12 13 5 5 7 7 10 9 11 13 13 11 5 15 16 19 17 19 14 18 25 28 30 20 19 22 26 29 32 34 36 37 38 40 42 43 44 45 46 47 48 44 40 39
14 13 9 8 13 18 9 11 14 13 12 7 11 10 17 18 18 19 16 24 29 31 24 20 21 25 28 33 36 37 38 40 41 43 44 46 46 47 49 48 42 40 39 40
13 9 14 16 17 7 8 14 15 14 10 12 16 7 12 20 23 25 25 24 28 32 21 18 22 25 31 35 39 39 39 40 42 44 45 45 47 50 48 42 41 42 41 39
16 13 14 14 13 10 14 16 13 10 7 13 14 9 14 19 22 22 20 19 26 28 20 20 23 27 32 35 37 39 39 41 42 43 45 47 50 49 43 43 42 40 39 37
6 8 13 14 14 13 18 15 6 10 11 14 15 8 16 19 18 18 19 22 27 24 21 20 23 27 32 36 39 41 41 43 44 45 47 49 50 43 43 43 40 38 37 35
12 13 16 16 17 16 17 14 17 17 17 10 14 17 20 21 18 20 24 22 26 24 20 19 23 28 33 37 41 42 42 44 45 46 48 52 44 44 43 40 40 38 35 32
18 14 15 16 16 12 12 11 11 12 7 8 15 17 13 22 19 23 26 25 25 23 18 19 24 29 33 38 42 43 43 45 45 47 50 48 43 43 41 42 40 38 33 29
19 13 12 11 10 11 10 10 9 10 9 7 9 15 25 22 21 25 27 25 26 19 17 20 24 29 34 39 43 43 44 45 44 46 51 44 45 42 42 42 41 40 32 26
15 11 5 9 9 8 5 8 11 10 14 13 14 14 23 21 21 24 22 22 23 18 17 20 24 30 34 39 44 44 44 44 44 46 49 43 45 43 43 45 43 39 28 23
11 9 6 10 11 8 6 9 13 14 16 15 14 18 22 21 24 23 23 23 22 18 15 20 25 30 35 39 42 45 44 43 43 46 48 44 43 44 44 45 42 37 29 20
9 7 5 5 9 10 6 10 15 15 13 14 14 17 21 22 24 24 24 24 21 14 15 20 25 30 34 38 41 45 44 42 42 46 46 43 43 46 45 45 41 39 28 19
8 5 6 9 9 7 9 15 16 14 15 15 15 20 23 25 29 31 26 21 18 12 15 20 24 29 34 39 41 45 45 42 41 45 45 43 43 45 44 43 39 35 26 21
6 6 10 11 13 13 11 13 16 16 16 17 18 25 22 26 31 32 24 10 12 11 15 20 24 29 34 38 41 45 45 41 39 43 44 42 43 43 43 39 34 31 25 23
11 10 10 15 15 15 15 15 15 16 19 18 20 21 24 27 27 25 14 7 7 11 16 20 24 28 32 38 40 44 45 42 38 41 43 41 41 42 41 35 31 29 26 23
13 11 11 16 14 13 14 12 14 19 20 20 20 21 25 29 23 17 11 7 9 12 17 20 23 27 31 36 40 45 44 42 38 38 42 39 39 40 39 34 29 28 25 25
14 13 14 14 12 13 14 12 15 19 19 20 20 23 28 29 19 12 10 10 12 14 17 20 24 27 30 34 40 45 44 42 38 36 40 39 38 38 38 35 29 26 24 23
17 16 15 12 12 13 16 13 14 16 19 20 20 23 28 28 15 11 10 10 11 14 17 20 24 27 29 33 38 44 44 42 40 36 37 39 37 35 36 35 30 27 26 23
19 17 16 16 13 15 17 16 15 16 18 21 21 23 26 23 15 12 10 11 13 15 17 20 23 26 29 32 37 43 44 42 41 37 34 37 37 35 34 34 32 28 24 25
18 17 18 18 16 16 19 18 18 19 16 17 19 20 24 21 15 12 11 12 16 16 17 19 22 26 28 31 36 40 44 41 42 40 35 33 36 35 33 33 31 30 30 24
20 19 21 18 19 19 19 19 22 22 19 17 19 20 22 19 15 13 11 13 16 16 17 19 22 25 27 31 34 37 43 42 40 41 38 33 33 35 33 32 31 29 28 29
22 22 22 21 19 19 19 20 23 24 23 20 19 19 22 18 15 12 13 16 16 15 17 19 22 25 28 31 33 35 40 43 40 42 40 37 32 31 33 33 31 30 28 26
20 22 21 21 20 19 19 21 23 26 25 21 21 20 21 18 16 14 15 16 16 16 18 20 23 25 28 30 32 34 37 41 41 40 41 37 35 31 30 32 32 30 28 26
22 22 22 21 19 18 19 20 22 26 27 25 23 23 22 19 19 18 17 17 17 18 19 21 24 26 28 30 31 33 36 40 41 38 39 37 35 34 30 28 30 31 29 27
Wind_Direction
210 91 186 213 218 259 307 326 328 342 342 342 344 350 349 340 349 353 341 349 349 340 338 335 333 349 5 7 4 354 351 346 339 333 328 322 316 313 309 304 301 298 295 295
206 225 265 248 280 294 318 331 335 350 342 341 337 335 333 333 352 354 346 349 344 341 338 335 350 357 2 358 353 349 346 340 334 330 327 324 321 319 316 314 310 307 304 300
173 235 241 269 301 341 344 338 340 350 339 350 345 342 324 348 345 344 337 340 344 341 338 344 348 354 357 353 350 346 342 340 335 331 328 328 326 323 319 318 317 313 310 308
210 239 244 249 264 311 316 339 344 345 22 343 344 308 325 337 328 332 332 333 340 340 341 340 347 351 353 351 348 344 341 338 337 335 333 331 327 323 323 322 320 317 315 311
225 240 211 225 277 305 293 334 349 14 9 11 347 288 306 322 316 323 318 327 334 339 338 337 345 352 349 347 346 343 341 340 338 337 334 330 326 326 327 325 322 319 317 313
221 235 234 256 287 323 314 334 346 342 359 303 326 346 279 318 311 312 307 317 327 339 333 341 346 349 347 346 345 344 342 340 339 338 333 329 330 331 329 328 325 322 319 318
221 235 258 292 320 310 328 350 331 337 330 307 316 325 281 311 313 305 313 328 336 339 335 341 344 346 344 344 344 345 344 342 341 337 334 333 333 333 333 331 327 324 323 322
207 261 266 296 300 286 304 316 294 304 303 294 301 294 312 329 330 335 336 332 339 342 336 341 343 343 343 345 347 348 347 345 343 340 337 336 337 338 336 333 331 327 326 324
222 250 284 291 300 307 296 305 304 306 309 338 277 298 315 328 321 335 341 334 336 337 335 339 344 343 346 347 350 349 347 347 346 342 339 340 342 341 339 337 333 332 331 329
246 260 281 299 311 317 318 312 314 325 314 315 300 321 293 323 315 322 334 332 336 333 333 341 343 344 348 351 352 350 349 350 348 343 342 345 346 343 343 342 340 341 337 337
261 270 290 294 317 321 324 321 316 311 308 292 319 295 299 320 316 318 324 326 331 333 337 345 342 347 351 354 354 351 351 353 348 344 346 349 348 346 345 345 348 350 343 344
249 263 263 288 310 328 316 321 327 325 305 319 323 303 319 319 319 325 329 327 332 336 340 344 344 349 352 354 353 353 354 354 349 346 351 352 352 349 345 345 348 350 348 352
233 240 288 320 329 348 337 331 328 327 331 319 334 295 319 320 318 319 319 326 332 336 342 344 347 350 352 352 353 356 356 356 351 349 354 356 355 353 351 352 357 1 357 10
210 232 249 283 308 297 303 339 344 330 334 320 314 316 326 322 318 318 320 326 329 333 344 345 347 353 354 353 354 358 358 358 353 354 355 358 359 358 359 3 8 7 14 27
215 242 302 307 311 308 290 310 327 328 328 336 328 329 326 328 326 326 323 318 329 332 343 345 349 354 353 353 357 360 0 2 355 357 357 1 4 2 5 9 11 12 24 30
220 277 296 310 318 321 315 324 325 328 325 322 330 327 328 330 333 333 332 314 330 335 342 344 349 350 351 355 359 1 2 4 358 359 359 4 8 6 11 14 15 16 26 34
255 277 303 303 317 318 313 323 324 326 327 324 326 324 327 335 337 340 344 337 333 336 343 343 348 347 352 356 360 2 4 4 3 1 1 6 11 9 15 18 21 21 27 42
260 287 299 298 306 314 308 315 325 328 332 330 327 325 330 335 333 339 347 341 337 339 343 342 345 347 353 357 1 4 5 4 7 2 4 8 13 13 16 21 19 21 28 34
271 288 290 299 301 297 298 318 336 332 332 332 331 330 332 332 324 327 332 339 337 340 341 342 345 350 354 355 1 5 5 6 8 6 5 9 13 16 17 24 19 24 27 30
270 278 283 287 289 296 297 314 327 327 330 335 335 330 332 335 319 316 320 331 336 343 340 343 343 349 350 354 360 4 6 7 8 11 5 9 12 17 18 22 25 21 22 25
265 271 277 282 284 288 291 302 315 321 334 337 335 333 333 335 318 307 308 327 338 339 341 340 343 347 349 353 358 3 6 7 7 12 9 6 11 16 19 20 24 25 17 15
256 265 270 275 283 283 290 300 308 316 330 338 325 328 334 332 318 297 307 326 331 334 335 338 344 347 350 352 356 0 4 6 7 8 13 6 8 13 17 20 21 24 25 12
248 252 262 267 273 278 284 295 302 311 323 334 332 329 334 331 313 294 303 319 323 326 331 336 344 346 348 350 352 358 2 4 5 6 8 11 6 10 13 16 19 20 23 25
245 249 256 262 263 269 277 289 300 308 316 327 333 330 331 326 308 292 305 313 313 322 325 332 340 344 346 348 350 354 358 1 0 3 4 7 9 6 9 11 14 17 19 21
251 247 252 257 260 266 275 286 297 302 310 321 322 325 325 317 299 289 299 304 311 315 317 325 331 337 342 344 347 351 353 357 358 358 360 2 5 8 5 6 9 12 14 15
253 250 251 256 258 258 269 281 290 297 306 312 317 316 318 311 287 283 291 299 305 307 312 319 325 330 336 341 344 347 349 352 353 353 355 357 0 3 5 4 2 6 9 10
Height
5940 5947 5947 5945 5945 5945 5945 5943 5939 5938 5936 5932 5928 5927 5924 5921 5919 5915 5912 5908 5904 5900 5894 5887 5881 5875 5870 5866 5861 5856 5851 5845 5840 5835 5829 5823 5816 5810 5803 5796 5790 5783 5777 5771
5943 5945 5943 5944 5943 5944 5943 5941 5938 5936 5934 5931 5927 5925 5923 5921 5918 5915 5911 5907 5902 5897 5892 5885 5879 5874 5869 5864 5859 5854 5848 5843 5837 5830 5824 5818 5810 5802 5795 5787 5780 5772 5765 5758
5944 5942 5942 5943 5942 5943 5942 5941 5937 5935 5931 5928 5927 5923 5920 5918 5915 5912 5909 5905 5901 5896 5889 5883 5879 5874 5868 5863 5857 5851 5845 5838 5832 5825 5817 5809 5801 5793 5785 5777 5770 5762 5753 5746
5940 5941 5942 5943 5941 5943 5944 5938 5935 5933 5930 5930 5928 5923 5920 5917 5914 5911 5907 5904 5899 5893 5886 5881 5877 5871 5866 5860 5853 5847 5840 5833 5826 5817 5809 5800 5791 5783 5774 5766 5757 5748 5742 5734
5939 5940 5942 5943 5940 5940 5939 5935 5933 5931 5930 5927 5926 5924 5916 5915 5913 5909 5905 5901 5897 5891 5884 5879 5874 5868 5863 5856 5850 5842 5834 5826 5818 5810 5801 5792 5784 5775 5766 5756 5747 5738 5731 5724
5937 5939 5940 5939 5939 5937 5935 5933 5931 5929 5929 5922 5925 5924 5914 5914 5911 5906 5902 5900 5895 5888 5882 5877 5872 5866 5860 5853 5845 5838 5830 5821 5813 5804 5795 5786 5776 5766 5755 5746 5737 5729 5721 5713
5936 5937 5937 5937 5936 5934 5933 5932 5932 5931 5928 5931 5923 5921 5918 5913 5908 5904 5901 5897 5892 5884 5879 5874 5868 5863 5857 5851 5844 5835 5827 5818 5809 5799 5789 5779 5769 5758 5748 5739 5729 5720 5712 5705
5938 5937 5935 5935 5934 5934 5931 5931 5934 5931 5930 5929 5921 5921 5914 5910 5906 5901 5898 5893 5888 5881 5876 5871 5866 5861 5855 5848 5840 5831 5822 5813 5803 5793 5783 5772 5761 5751 5741 5732 5723 5714 5706 5698
5935 5934 5933 5932 5931 5931 5929 5929 5927 5925 5922 5923 5920 5914 5911 5907 5903 5899 5894 5890 5885 5879 5874 5869 5864 5859 5853 5845 5836 5827 5818 5808 5798 5788 5777 5766 5755 5745 5735 5726 5717 5708 5699 5692
5931 5932 5931 5930 5929 5928 5926 5925 5924 5924 5923 5921 5919 5912 5910 5903 5899 5895 5891 5887 5882 5876 5872 5867 5862 5857 5851 5842 5833 5824 5814 5804 5794 5783 5772 5762 5751 5741 5731 5721 5711 5702 5694 5686
5928 5931 5930 5928 5927 5926 5924 5922 5921 5920 5918 5917 5918 5912 5906 5900 5896 5892 5888 5883 5878 5873 5869 5865 5860 5854 5847 5839 5830 5821 5810 5800 5791 5780 5769 5758 5748 5738 5727 5716 5706 5697 5688 5681
5926 5928 5929 5927 5925 5923 5921 5919 5918 5917 5916 5912 5910 5910 5902 5897 5893 5889 5885 5881 5875 5870 5866 5863 5858 5852 5845 5836 5828 5818 5808 5798 5789 5778 5767 5756 5745 5735 5724 5712 5702 5692 5684 5679
5924 5925 5926 5925 5924 5921 5919 5917 5916 5914 5912 5909 5908 5907 5899 5894 5890 5886 5882 5878 5872 5868 5864 5861 5856 5850 5842 5835 5827 5817 5807 5797 5787 5777 5765 5755 5744 5734 5722 5711 5700 5691 5684 5679
5922 5923 5924 5926 5923 5920 5918 5916 5913 5911 5910 5908 5907 5901 5895 5891 5886 5882 5878 5874 5869 5866 5863 5859 5854 5848 5841 5834 5825 5816 5806 5796 5786 5775 5765 5755 5744 5733 5722 5711 5701 5693 5685 5682
5919 5920 5920 5920 5919 5918 5915 5913 5911 5908 5906 5905 5902 5898 5893 5888 5883 5878 5873 5869 5867 5864 5861 5857 5853 5846 5840 5832 5824 5815 5805 5795 5786 5776 5765 5755 5744 5734 5723 5713 5705 5697 5690 5686
5917 5918 5917 5916 5914 5913 5911 5910 5907 5906 5904 5902 5899 5895 5890 5885 5879 5873 5867 5865 5864 5862 5860 5856 5851 5845 5839 5831 5823 5814 5804 5795 5786 5776 5766 5756 5746 5736 5725 5716 5709 5702 5695 5689
5914 5914 5914 5913 5911 5910 5909 5907 5905 5903 5901 5899 5897 5892 5888 5883 5876 5871 5866 5864 5863 5861 5858 5855 5850 5845 5838 5831 5823 5813 5804 5795 5786 5777 5768 5757 5748 5738 5728 5720 5714 5707 5700 5694
5910 5911 5912 5910 5908 5907 5906 5904 5903 5901 5898 5896 5893 5889 5884 5879 5874 5870 5867 5864 5862 5860 5857 5853 5849 5843 5837 5830 5822 5813 5804 5796 5787 5778 5769 5758 5750 5741 5732 5724 5719 5713 5707 5701
5906 5907 5907 5906 5904 5904 5902 5901 5900 5898 5896 5892 5889 5885 5881 5876 5871 5869 5866 5864 5861 5859 5856 5852 5847 5842 5836 5830 5822 5813 5804 5796 5788 5779 5770 5761 5752 5745 5736 5728 5723 5718 5712 5706
5901 5902 5903 5902 5901 5900 5897 5896 5895 5894 5893 5889 5885 5882 5878 5873 5869 5867 5865 5863 5860 5857 5854 5850 5846 5841 5835 5830 5822 5814 5805 5797 5788 5780 5772 5763 5755 5748 5740 5732 5725 5721 5716 5710
5896 5896 5897 5897 5897 5895 5893 5892 5891 5891 5892 5886 5881 5878 5874 5870 5867 5865 5864 5861 5858 5856 5852 5849 5844 5840 5835 5829 5822 5814 5805 5797 5789 5781 5773 5766 5758 5750 5743 5735 5728 5722 5718 5713
5891 5891 5892 5892 5892 5891 5889 5887 5887 5886 5884 5884 5880 5875 5871 5867 5865 5863 5862 5860 5857 5854 5851 5847 5843 5838 5833 5828 5821 5814 5806 5798 5790 5782 5775 5768 5760 5752 5745 5738 5732 5725 5719 5715
5887 5887 5887 5889 5887 5886 5885 5882 5880 5879 5879 5877 5876 5872 5867 5864 5862 5860 5859 5857 5855 5852 5849 5845 5841 5836 5831 5826 5820 5813 5806 5798 5791 5784 5776 5769 5762 5755 5747 5741 5735 5728 5722 5717
5880 5881 5882 5882 5882 5881 5880 5878 5875 5873 5873 5871 5870 5868 5864 5860 5858 5857 5856 5854 5852 5849 5847 5843 5839 5834 5829 5824 5818 5812 5805 5798 5791 5784 5777 5770 5763 5756 5750 5743 5737 5732 5726 5720
5874 5875 5876 5876 5876 5876 5876 5873 5871 5867 5867 5867 5864 5863 5861 5857 5855 5854 5852 5851 5849 5846 5844 5840 5837 5832 5827 5822 5816 5810 5804 5797 5790 5784 5777 5771 5764 5758 5751 5745 5739 5734 5729 5723
5867 5868 5869 5869 5871 5871 5870 5869 5867 5863 5861 5860 5859 5857 5857 5854 5851 5849 5848 5847 5844 5843 5840 5837 5834 5829 5824 5819 5814 5808 5803 5796 5789 5783 5777 5771 5765 5759 5753 5747 5741 5736 5730 5726